Regional Weather Roundup
Issued by NWS

Home | Current Version | Previous Version | Graphics & Text | Print | Product List | Glossary On
Versions: 1 2 3 4 5 6 7 8 9 10 11 12 13 14 15 16 17 18 19 20 21 22 23 24 25 26 27 28 29 30 31 32 33 34 35 36 37 38 39 40 41 42 43 44 45 46 47 48 49 50
000
ASUS43 KLSX 271757
RWRMO

WEATHER SUMMARY FOR MISSOURI
NATIONAL WEATHER SERVICE SPRINGFIELD MO
100 PM CDT WED JUL 27 2016

NOTE: "FAIR" INDICATES FEW OR NO CLOUDS BELOW 12,000 FEET WITH NO
       SIGNIFICANT WEATHER AND/OR OBSTRUCTIONS TO VISIBILITY.
       CURRENT SKY AND/OR WEATHER CONDITIONS ARE NOT AVAILABLE FOR
       CHILLICOTHE AND FARMINGTON.

MOZ001>031-035>038-043-044-053-054-271900-
...NORTHERN AND WESTERN MISSOURI...

CITY           SKY/WX    TMP DP  RH WIND       PRES   REMARKS
KANSAS CTY INT PTSUNNY   86  71  60 NW6       30.00F HX  91
6HR MIN TEMP:  69; 6HR MAX TEMP:  87;

LEE`S SUMMIT   MOSUNNY   87  68  52 W5        30.00S HX  90
6HR MIN TEMP:  70; 6HR MAX TEMP:  88;

ST JOSEPH      MOSUNNY   85  68  56 CALM      30.00F
6HR MIN TEMP:  65; 6HR MAX TEMP:  86;


$$
MOZ066>068-077>081-088>096-101>105-271900-
...SOUTHWEST MISSOURI...

CITY           SKY/WX    TMP DP  RH WIND       PRES   REMARKS
SPRINGFIELD    MOSUNNY   78  72  81 SE5       30.00F
6HR MIN TEMP:  73; 6HR MAX TEMP:  78; 6HR PCP:  0.04;

JOPLIN         CLOUDY    87  74  64 CALM      29.99S HX  95
6HR MIN TEMP:  72; 6HR MAX TEMP:  87;

BRANSON        PTSUNNY   86  73  66 CALM      30.01F HX  93

$$
MOZ032>034-039>042-045>050-055>058-069>072-271900-
...CENTRAL MISSOURI...

CITY           SKY/WX    TMP DP  RH WIND       PRES   REMARKS
COLUMBIA       NOT AVBL
JEFFERSON CITY SUNNY     87  73  62 CALM      29.97F HX  94
6HR MIN TEMP:  73; 6HR MAX TEMP:  88;

ROLLA          CLOUDY    84  74  71 VRB6      30.00F HX  91
6HR MIN TEMP:  72; 6HR MAX TEMP:  84;

SEDALIA        SUNNY     89  75  63 VRB5      29.99F HX  99
6HR MIN TEMP:  73; 6HR MAX TEMP:  89;

OSAGE BEACH    MOSUNNY   84  75  74 SE6       30.00S HX  92

$$
MOZ051-052-059>065-271900-
...EAST CENTRAL MISSOURI...

CITY           SKY/WX    TMP DP  RH WIND       PRES   REMARKS
ST LOUIS INTL  MOSUNNY   87  71  58 CALM      29.99F HX  93
6HR MIN TEMP:  78; 6HR MAX TEMP:  89;


$$
MOZ072>076-082>087-097>100-106>115-271900-
...SOUTH CENTRAL AND SOUTHEAST MISSOURI...

CITY           SKY/WX    TMP DP  RH WIND       PRES   REMARKS
CAPE GIRARDEAU SUNNY     88  74  63 CALM      29.97F HX  96
6HR MIN TEMP:  73; 6HR MAX TEMP:  88;

POPLAR BLUFF   MOSUNNY   89  77  67 NE6       29.96F HX 101
6HR MIN TEMP:  74; 6HR MAX TEMP:  89;

WEST PLAINS    MOSUNNY   87  71  58 NE5       30.01F HX  93
6HR MIN TEMP:  71; 6HR MAX TEMP:  87;


$$


USA.gov is the U.S. government's official web portal to all federal, state and local government web resources and services.